Dewpoint
1 2 3 4 4 8 12 12 13 13 13 13 12 13 12 8 5 -1 0 -0 2 2 2 2 2 -1 -2 -0 1 1 1 3 1 1 0 2 2 2 1 1 1 0 0
3 3 4 6 8 9 9 11 12 13 13 13 12 11 8 6 4 3 0 0 2 2 3 2 1 -4 -2 1 2 2 1 2 -0 1 1 1 2 1 1 0 0 -2 -1
3 5 6 6 7 8 8 9 12 12 13 12 11 7 5 6 5 2 -2 2 2 2 2 -0 -6 -3 -1 1 2 1 0 -1 0 1 2 2 1 1 0 -1 0 -1 -2
3 4 4 4 5 7 8 9 9 11 12 9 7 5 6 5 3 -1 2 2 2 2 0 -5 -5 -2 -2 -0 -1 -1 0 -0 -0 2 2 1 0 -1 0 -1 -1 -2 -2
3 4 4 4 5 8 10 10 10 11 9 8 5 5 5 3 -0 2 2 2 1 1 -6 -5 -3 -3 1 -1 -0 -0 0 -0 1 1 1 1 1 -0 -1 -1 -2 -1 -0
4 4 5 6 6 7 10 10 11 10 7 5 4 4 5 -1 2 2 2 1 1 0 -7 -5 -4 -1 0 -0 -0 -1 0 0 1 -0 0 1 0 -1 -2 -2 -2 -1 -1
3 4 4 5 7 9 11 11 11 9 7 6 5 6 2 0 2 1 1 0 1 -9 -8 -5 -1 -1 0 -0 -0 0 -1 1 1 -0 0 0 -1 -1 -2 -2 -2 -2 -1
4 4 3 4 5 7 9 10 10 8 6 6 6 4 -0 1 -0 1 1 1 -9 -8 -5 -3 -1 -1 -1 -1 1 1 1 1 1 1 1 -1 -1 -2 -2 -2 -2 -2 -1
3 3 3 3 5 7 8 9 8 7 7 6 4 -0 1 -1 -0 -2 -2 -7 -7 -5 -3 -2 -0 -1 -1 -1 -1 0 0 1 1 0 -1 -1 -2 -2 -2 -2 -3 -2 -2
4 1 -1 1 4 5 7 8 7 7 6 4 1 -0 -1 -2 -2 -2 -4 -4 -3 -3 -3 -2 -1 -0 -1 -1 -1 -1 -1 -1 0 -1 -2 -2 -2 -2 -2 -3 -3 -3 -2
3 3 4 4 5 6 7 7 6 5 3 0 -0 -2 -1 -2 -1 0 -3 -2 -2 -3 -4 -3 -2 -1 -2 -1 -1 -2 -2 -1 -1 -2 -2 -2 -3 -3 -3 -4 -4 -3 -3
1 1 4 5 5 5 5 5 4 2 -0 -0 -1 -0 -2 -2 0 -2 -2 -3 -1 -3 -4 -3 -2 -1 -2 -2 -2 -2 -1 -1 -1 -1 -2 -2 -3 -4 -5 -5 -4 -4 -3
3 3 3 3 4 4 4 3 0 -0 -0 -1 -2 -0 -1 0 -1 -0 -1 -1 -2 -3 -3 -2 -2 -2 -2 -2 -1 -1 -1 -1 -1 -2 -2 -2 -4 -5 -5 -5 -5 -4 -4
2 3 3 3 1 0 1 1 1 1 1 1 -0 -1 -0 -0 -0 -1 -1 -2 -3 -3 -3 -2 -2 -3 -3 -2 -1 -1 -1 -1 -2 -2 -2 -3 -5 -5 -5 -5 -5 -5 -4
1 1 1 1 0 1 1 1 0 -0 -1 -1 -0 -1 -1 -1 -0 -1 -1 -3 -4 -3 -3 -3 -2 -3 -3 -2 -1 -1 -1 -2 -2 -3 -3 -3 -4 -5 -5 -5 -5 -5 -5
1 1 1 1 1 1 0 -0 -1 -0 -0 -0 -1 -2 -1 -1 -1 -1 -2 -3 -4 -4 -3 -3 -3 -3 -3 -3 -2 -2 -2 -2 -2 -3 -3 -4 -4 -5 -5 -5 -5 -4 -4
1 2 1 -0 -0 -1 -1 -0 -0 -0 -1 -2 -1 -2 -2 -2 -1 -1 -3 -3 -4 -5 -4 -4 -3 -4 -3 -3 -3 -3 -3 -3 -3 -3 -4 -4 -4 -5 -5 -5 -5 -5 -4
-1 -0 -0 -1 -1 -1 -1 -1 -2 -3 -3 -3 -3 -2 -2 -1 -2 -2 -3 -3 -4 -4 -4 -4 -4 -4 -4 -4 -3 -3 -3 -3 -3 -4 -4 -4 -5 -5 -5 -5 -5 -5 -4
-1 -2 -2 -2 -3 -3 -4 -4 -4 -4 -3 -3 -3 -3 -2 -2 -2 -2 -3 -4 -4 -4 -4 -4 -5 -5 -5 -4 -4 -4 -3 -4 -4 -4 -4 -5 -5 -5 -5 -5 -5 -5 -5
-3 -4 -4 -4 -4 -4 -5 -4 -4 -4 -3 -3 -3 -3 -3 -3 -3 -2 -2 -3 -4 -5 -4 -5 -5 -5 -5 -5 -5 -5 -5 -4 -4 -4 -4 -4 -4 -5 -5 -5 -5 -5 -5
-5 -5 -5 -5 -5 -5 -5 -4 -4 -4 -4 -3 -3 -3 -3 -3 -3 -3 -3 -3 -3 -4 -4 -5 -5 -5 -5 -5 -6 -5 -5 -4 -5 -5 -4 -4 -4 -5 -5 -5 -5 -5 -5
-7 -6 -6 -6 -6 -6 -6 -5 -5 -5 -4 -4 -4 -3 -3 -3 -3 -3 -4 -4 -4 -4 -5 -5 -5 -5 -5 -5 -6 -6 -5 -5 -5 -4 -4 -4 -4 -4 -5 -5 -5 -5 -5
-6 -6 -7 -7 -7 -7 -7 -7 -6 -6 -5 -4 -4 -4 -4 -4 -3 -4 -4 -5 -5 -5 -5 -5 -5 -5 -5 -5 -5 -5 -5 -5 -5 -4 -4 -4 -4 -4 -5 -5 -5 -5 -5
-6 -6 -6 -6 -6 -7 -8 -9 -8 -8 -7 -5 -5 -5 -4 -4 -4 -5 -5 -5 -5 -5 -5 -6 -6 -6 -6 -6 -5 -5 -5 -5 -5 -5 -5 -5 -5 -5 -5 -5 -5 -5 -5
-7 -7 -7 -7 -7 -8 -9 -9 -9 -9 -8 -6 -5 -5 -5 -5 -5 -6 -6 -6 -6 -6 -6 -7 -7 -6 -6 -6 -6 -6 -5 -5 -5 -5 -5 -5 -5 -5 -5 -5 -5 -5 -5
-13 -10 -8 -8 -9 -9 -8 -9 -10 -10 -9 -8 -7 -5 -5 -5 -6 -6 -6 -7 -6 -7 -7 -7 -7 -6 -6 -6 -6 -6 -6 -6 -5 -5 -5 -5 -5 -5 -5 -5 -5 -6 -6
Wind_Speed
21 20 18 20 26 30 31 32 33 34 34 35 30 31 27 19 23 25 21 15 9 13 15 20 26 33 32 31 29 29 29 27 29 32 30 29 27 22 22 26 29 26 28
28 23 22 20 18 21 23 24 27 30 30 25 29 28 25 24 28 25 20 12 13 13 22 34 35 34 32 32 31 29 30 28 24 26 24 25 22 19 21 24 25 27 26
32 26 23 22 20 21 21 22 24 26 28 29 28 25 28 33 29 24 19 14 14 20 32 27 35 34 32 32 32 32 26 21 21 24 24 21 20 17 24 26 28 30 27
34 30 27 26 25 25 23 23 24 28 29 29 25 30 36 32 28 21 16 15 16 24 26 33 32 33 33 27 24 22 21 19 18 18 19 17 19 22 25 27 30 23 20
37 33 31 28 28 28 29 28 27 29 28 28 31 35 33 30 25 16 14 12 17 30 29 29 30 28 24 23 22 18 19 16 18 17 14 19 22 23 24 26 21 19 16
37 34 30 29 31 32 33 32 32 31 29 33 35 34 32 29 16 13 12 13 17 24 28 28 26 25 25 24 22 19 19 18 19 16 19 21 23 22 25 23 19 16 17
34 29 27 29 32 33 34 34 35 36 36 38 37 35 32 22 13 13 12 16 21 29 27 26 25 25 23 19 19 17 17 18 19 20 21 23 22 22 19 17 15 13 15
28 25 24 25 29 32 33 35 38 37 37 39 38 34 24 13 11 14 18 20 27 24 23 24 23 20 19 17 15 15 18 21 22 21 21 20 20 17 18 17 12 14 17
26 27 27 27 29 29 34 38 40 39 39 38 36 30 14 9 14 14 18 24 25 24 23 22 21 19 16 16 16 17 18 19 17 17 19 20 17 15 16 16 17 17 20
21 22 23 23 26 29 34 39 38 38 40 39 35 23 9 10 12 15 21 25 26 23 20 21 23 22 18 16 16 15 16 16 16 14 18 15 15 16 18 18 17 20 27
16 18 22 20 23 28 31 34 35 37 35 29 22 13 11 11 18 21 25 24 23 20 19 19 17 18 17 16 19 18 17 15 17 16 17 15 16 15 15 15 14 18 27
17 19 22 20 22 23 28 32 34 33 29 23 16 13 11 16 23 23 23 22 22 21 18 17 13 13 13 14 18 17 16 16 18 15 14 15 12 10 11 13 12 17 22
18 21 24 23 24 24 28 28 28 25 20 12 10 7 15 25 23 21 22 21 21 18 16 14 13 14 17 15 15 20 17 15 14 14 13 13 9 8 12 12 13 17 20
20 20 21 22 22 21 23 24 21 13 8 8 9 18 20 24 23 22 23 21 16 15 15 15 14 15 14 15 15 16 17 15 14 13 13 11 10 13 15 14 16 19 21
14 14 16 19 22 23 20 15 12 12 9 18 24 17 19 22 22 22 21 16 14 13 15 13 13 14 13 15 16 17 15 15 15 13 13 13 15 16 17 17 16 18 19
15 16 20 20 22 22 18 12 9 17 22 21 17 20 21 21 21 20 16 13 13 12 12 10 10 11 12 13 16 18 18 16 16 14 15 15 18 20 19 18 18 18 19
16 15 13 13 9 9 6 12 19 16 13 15 20 23 20 20 18 17 14 12 11 10 8 8 10 11 11 12 14 15 15 17 15 15 16 17 20 22 21 20 20 20 20
9 11 11 9 7 11 13 15 13 12 14 18 19 18 16 17 18 15 14 11 10 9 8 11 10 10 11 11 12 14 13 15 17 15 17 18 20 24 25 24 22 22 22
7 7 9 11 12 12 12 12 13 14 16 16 14 17 15 18 16 16 14 12 10 8 7 10 10 10 10 11 13 14 14 15 16 16 17 17 20 24 27 28 26 23 23
9 9 10 11 12 12 12 11 11 11 12 12 14 14 15 14 19 19 16 13 11 8 8 8 8 8 9 10 12 15 17 17 16 17 18 17 19 23 27 28 30 28 28
8 10 11 11 12 12 9 8 8 10 9 10 11 10 12 13 15 16 12 12 11 9 9 8 8 8 8 9 11 13 13 15 19 17 17 17 17 21 25 26 27 29 29
7 8 8 8 9 9 9 8 10 11 9 9 9 8 10 12 12 12 10 9 9 8 7 8 8 8 9 9 10 12 15 15 17 18 17 17 17 19 22 25 27 29 29
5 6 7 7 8 9 9 10 11 12 11 10 10 10 9 7 7 9 8 10 11 11 9 8 10 11 10 11 11 11 13 16 16 17 17 17 17 17 19 22 26 28 30
10 9 10 11 12 11 15 16 15 15 14 12 12 10 8 8 8 9 10 11 12 10 11 9 10 11 12 11 10 10 11 13 15 17 18 18 17 17 17 19 21 24 26
14 13 13 11 14 17 17 17 16 18 14 14 12 9 10 8 8 9 11 11 11 10 10 10 11 11 12 11 11 10 10 11 14 15 15 16 16 16 16 17 19 20 22
23 23 21 19 17 16 16 17 19 17 14 13 13 12 12 13 10 11 11 7 9 10 11 10 10 11 10 11 12 12 11 10 12 14 15 16 16 17 16 15 16 17 19
Wind_Direction
246 266 269 276 270 264 258 258 254 257 258 254 259 243 231 231 222 216 219 223 285 305 307 314 319 300 288 286 281 278 277 276 281 284 287 293 292 277 282 281 277 273 268
255 257 259 262 259 258 258 257 253 253 258 256 234 235 240 224 218 217 223 241 290 308 322 320 291 288 285 283 283 278 277 275 276 281 284 290 267 287 278 283 284 278 276
256 250 251 262 266 263 262 254 249 254 251 241 247 232 221 215 218 217 223 261 289 316 317 288 286 285 284 284 283 282 273 266 275 279 283 269 295 282 287 289 290 288 279
250 248 254 260 266 266 260 255 248 249 244 241 238 221 211 214 218 216 245 277 304 305 300 281 284 285 289 288 279 278 277 272 274 266 264 282 284 290 288 293 295 292 278
243 245 248 255 261 260 253 250 251 245 244 234 219 207 215 216 212 241 266 286 289 303 277 280 282 285 281 277 267 269 271 265 258 274 278 275 286 292 295 298 288 287 284
241 246 247 251 253 251 249 248 247 240 227 217 215 224 221 211 231 251 274 284 285 291 278 277 280 276 274 270 260 263 259 256 267 270 281 273 284 292 295 288 278 277 281
242 243 246 250 250 248 244 240 236 227 224 220 221 221 217 220 239 258 282 286 290 275 277 278 274 272 267 266 255 255 254 256 266 271 275 277 287 294 280 271 267 260 258
234 240 247 252 254 251 243 235 231 228 220 218 218 215 210 224 248 287 282 285 272 275 270 270 272 266 265 267 264 257 257 258 264 269 275 286 287 275 267 262 251 250 249
237 243 249 251 247 247 237 231 226 221 218 218 213 203 210 259 281 281 285 279 273 267 263 268 269 267 267 262 256 258 256 261 262 267 279 281 274 267 257 250 233 231 210
273 267 259 251 244 244 241 228 224 221 217 209 207 206 222 247 264 281 282 274 270 270 267 265 265 263 261 258 263 261 265 268 256 273 282 270 267 265 254 246 236 221 208
274 280 277 268 254 243 234 227 222 211 208 204 201 204 240 252 265 276 280 282 275 271 270 275 270 264 266 254 257 254 255 251 261 273 272 264 266 257 245 217 212 221 214
306 298 283 270 260 252 238 220 208 204 196 194 211 243 245 271 281 278 279 272 269 273 270 273 261 262 269 264 251 249 250 254 257 259 262 260 260 248 212 187 200 219 222
304 300 282 270 260 236 216 209 198 194 194 213 247 247 284 290 281 275 281 274 276 269 273 269 257 267 277 258 241 247 238 246 259 248 254 255 248 214 175 182 202 211 215
287 266 261 253 226 207 196 192 187 197 229 195 248 267 284 278 269 274 279 278 273 266 264 262 257 263 271 258 237 238 234 236 249 243 243 240 204 186 172 190 199 204 205
255 239 224 206 189 172 172 178 188 196 229 260 273 277 281 271 267 270 274 268 277 281 270 265 260 268 262 246 240 229 227 226 234 230 227 217 192 181 184 185 194 196 200
252 237 207 204 200 201 211 211 221 271 270 280 274 278 268 256 259 269 264 260 276 281 274 261 257 259 255 251 242 230 226 225 225 226 217 216 198 188 188 188 191 194 194
241 223 211 221 219 210 253 255 270 270 274 279 272 278 267 258 253 254 254 251 267 283 277 251 253 255 255 248 241 229 233 225 223 225 218 216 203 198 195 192 190 192 194
151 168 180 193 240 284 289 286 290 292 282 275 273 275 261 251 244 241 242 248 254 265 254 235 246 253 255 251 242 232 229 220 221 219 216 214 210 205 203 201 199 195 195
303 300 307 313 319 319 315 313 292 280 278 280 270 262 262 253 238 238 242 247 257 264 256 231 239 250 248 244 238 232 226 223 225 221 218 213 211 211 211 211 209 204 200
317 324 332 332 330 326 321 316 304 296 286 270 277 278 264 259 239 236 244 244 244 250 243 234 238 247 245 241 239 232 228 223 223 223 221 219 213 213 217 214 216 215 210
337 331 322 324 322 315 313 313 301 302 298 284 282 276 271 254 250 242 249 256 247 245 248 247 238 246 246 247 237 230 232 229 218 221 219 216 216 215 220 222 219 219 219
358 351 342 331 323 323 323 300 304 303 296 287 288 295 277 261 243 240 239 250 240 246 255 251 243 249 244 247 246 233 229 226 222 217 221 222 219 216 218 221 223 222 222
323 340 341 335 332 336 323 305 300 301 295 287 293 293 281 252 235 225 238 249 250 251 256 265 258 248 246 241 240 236 227 225 219 218 218 221 220 217 215 217 219 222 223
290 301 299 290 285 304 319 311 300 293 284 277 275 276 264 242 228 232 237 256 253 254 253 263 256 247 245 237 237 230 221 219 216 217 221 223 222 217 215 215 216 216 220
286 279 270 275 282 296 300 304 299 302 297 264 257 251 245 235 252 263 265 262 256 243 244 262 252 237 246 231 226 229 215 214 211 209 209 212 212 212 213 212 211 210 212
282 279 280 283 287 286 288 294 296 297 293 286 265 254 241 234 259 270 273 265 227 237 253 251 240 239 231 225 219 221 214 205 204 204 207 209 210 210 209 209 207 209 211
Height
1447 1448 1448 1449 1449 1449 1449 1450 1451 1452 1455 1457 1458 1459 1461 1464 1467 1469 1474 1477 1478 1479 1480 1481 1479 1482 1481 1480 1478 1477 1473 1472 1467 1464 1463 1460 1461 1460 1459 1459 1457 1457 1455
1439 1440 1441 1443 1443 1443 1442 1443 1445 1447 1448 1451 1453 1453 1457 1460 1463 1465 1469 1470 1471 1471 1471 1470 1474 1475 1472 1470 1469 1469 1467 1465 1462 1458 1458 1456 1455 1453 1452 1451 1451 1449 1447
1429 1431 1433 1434 1434 1435 1435 1434 1435 1437 1442 1446 1449 1451 1452 1455 1456 1458 1460 1463 1463 1461 1463 1467 1467 1466 1463 1462 1460 1458 1457 1455 1454 1453 1453 1451 1449 1450 1448 1446 1444 1441 1440
1421 1422 1424 1425 1427 1428 1429 1428 1428 1429 1432 1437 1438 1442 1446 1449 1451 1452 1453 1455 1455 1456 1456 1460 1459 1459 1457 1456 1454 1453 1452 1448 1447 1447 1446 1445 1445 1446 1443 1439 1437 1434 1431
1413 1415 1416 1418 1420 1422 1422 1422 1422 1423 1426 1429 1432 1437 1441 1442 1445 1447 1448 1447 1448 1447 1451 1452 1453 1450 1451 1447 1446 1446 1444 1442 1442 1441 1439 1441 1439 1439 1437 1434 1432 1430 1428
1406 1407 1410 1412 1414 1415 1414 1415 1416 1417 1421 1426 1430 1434 1435 1437 1437 1440 1440 1442 1442 1441 1443 1443 1442 1444 1443 1442 1441 1440 1439 1438 1437 1434 1433 1433 1433 1433 1432 1430 1429 1428 1426
1399 1401 1403 1405 1406 1407 1408 1408 1409 1411 1414 1418 1422 1425 1427 1431 1432 1434 1434 1434 1433 1435 1435 1435 1437 1438 1435 1433 1432 1431 1433 1434 1433 1431 1428 1427 1427 1428 1427 1426 1426 1426 1425
1392 1395 1397 1399 1400 1401 1401 1401 1403 1407 1410 1413 1414 1416 1420 1423 1425 1428 1428 1427 1428 1428 1428 1429 1428 1430 1431 1428 1426 1425 1426 1427 1425 1427 1425 1423 1422 1422 1422 1423 1424 1424 1425
1386 1388 1389 1390 1391 1393 1393 1394 1397 1399 1403 1407 1409 1411 1414 1419 1422 1422 1423 1423 1422 1422 1423 1424 1424 1424 1422 1421 1420 1419 1419 1422 1421 1419 1421 1419 1417 1417 1418 1419 1420 1422 1424
1394 1390 1386 1383 1385 1386 1385 1387 1389 1391 1394 1395 1399 1405 1406 1410 1415 1418 1417 1419 1418 1419 1418 1418 1419 1417 1418 1417 1416 1414 1415 1416 1416 1415 1416 1414 1413 1412 1413 1415 1417 1419 1421
1387 1384 1388 1384 1385 1385 1383 1384 1385 1388 1394 1399 1402 1402 1404 1406 1407 1408 1411 1412 1411 1411 1409 1411 1410 1410 1410 1411 1413 1411 1410 1412 1412 1411 1412 1410 1408 1408 1409 1410 1414 1417 1420
1386 1383 1382 1381 1383 1381 1384 1383 1384 1385 1388 1392 1397 1398 1400 1402 1403 1403 1403 1403 1403 1403 1401 1404 1402 1405 1405 1404 1406 1408 1407 1407 1407 1407 1408 1407 1404 1404 1406 1409 1412 1415 1419
1384 1385 1385 1380 1377 1377 1381 1382 1384 1386 1388 1391 1394 1398 1401 1402 1400 1400 1399 1400 1397 1397 1399 1398 1397 1401 1398 1399 1400 1402 1402 1403 1404 1404 1405 1404 1403 1404 1406 1410 1413 1416 1420
1376 1375 1377 1377 1376 1376 1376 1382 1385 1388 1390 1392 1392 1390 1394 1396 1397 1398 1396 1396 1395 1389 1391 1393 1394 1395 1393 1394 1395 1397 1398 1399 1401 1402 1402 1402 1402 1404 1407 1410 1413 1416 1420
1374 1373 1373 1374 1377 1374 1378 1380 1381 1381 1384 1386 1388 1388 1390 1391 1392 1391 1393 1393 1391 1390 1388 1386 1390 1390 1390 1390 1391 1393 1394 1396 1398 1399 1400 1401 1401 1404 1407 1411 1414 1417 1420
1375 1372 1371 1373 1371 1370 1371 1374 1377 1380 1380 1380 1383 1385 1385 1384 1385 1387 1387 1387 1387 1383 1385 1384 1387 1387 1387 1386 1388 1388 1391 1393 1395 1396 1398 1399 1400 1403 1407 1410 1414 1417 1420
1373 1373 1371 1371 1372 1372 1372 1372 1372 1372 1374 1377 1380 1382 1380 1381 1380 1380 1383 1381 1381 1380 1380 1383 1384 1384 1384 1383 1384 1385 1387 1390 1392 1394 1396 1397 1399 1402 1406 1409 1413 1416 1420
1371 1371 1371 1372 1373 1371 1371 1371 1370 1370 1371 1374 1376 1375 1376 1375 1376 1376 1378 1377 1377 1375 1376 1380 1380 1381 1381 1380 1382 1382 1384 1387 1389 1391 1393 1395 1397 1401 1404 1408 1411 1415 1419
1375 1375 1374 1373 1372 1371 1371 1369 1369 1369 1369 1370 1371 1372 1370 1372 1372 1373 1374 1374 1374 1374 1375 1376 1376 1377 1378 1378 1379 1380 1382 1384 1386 1388 1390 1392 1395 1399 1402 1406 1410 1414 1418
1375 1375 1373 1372 1371 1371 1369 1368 1368 1368 1367 1368 1367 1367 1367 1368 1368 1369 1370 1371 1370 1371 1374 1373 1373 1373 1374 1375 1377 1378 1379 1381 1383 1385 1387 1389 1391 1395 1399 1403 1407 1411 1415
1373 1372 1373 1370 1369 1370 1369 1366 1366 1366 1366 1365 1366 1364 1364 1364 1364 1366 1367 1368 1368 1368 1371 1371 1370 1371 1372 1373 1374 1375 1376 1377 1379 1382 1384 1386 1389 1391 1395 1399 1403 1407 1412
1373 1372 1370 1369 1370 1369 1367 1367 1365 1365 1364 1364 1363 1362 1362 1361 1362 1363 1365 1366 1366 1367 1367 1368 1368 1368 1369 1370 1371 1372 1373 1374 1376 1379 1381 1384 1386 1388 1391 1395 1399 1403 1407
1373 1371 1370 1369 1369 1368 1368 1366 1365 1363 1362 1362 1361 1361 1360 1359 1359 1361 1363 1364 1364 1364 1364 1365 1365 1366 1366 1367 1368 1369 1370 1371 1373 1376 1378 1381 1382 1385 1388 1391 1394 1398 1403
1371 1369 1368 1368 1367 1366 1365 1363 1362 1360 1359 1358 1358 1358 1357 1357 1358 1359 1360 1361 1361 1361 1361 1362 1362 1363 1364 1365 1366 1366 1368 1369 1370 1372 1375 1377 1379 1382 1384 1387 1390 1394 1398
1368 1366 1366 1365 1364 1363 1362 1360 1358 1357 1355 1355 1355 1354 1355 1356 1357 1357 1357 1357 1357 1358 1358 1359 1359 1360 1361 1362 1363 1365 1366 1367 1368 1370 1372 1374 1376 1379 1381 1384 1387 1391 1395
1362 1361 1361 1360 1359 1359 1357 1356 1354 1353 1352 1351 1351 1351 1352 1353 1354 1354 1354 1354 1354 1355 1355 1356 1356 1357 1358 1359 1361 1363 1364 1365 1366 1368 1370 1372 1374 1376 1379 1382 1385 1388 1391